Flag for U.S.A. Weather past 2 weeks in Greensboro, North Carolina, U.S.A.

Now
52 °F

Passing clouds.


Feels Like: 52 °F
Forecast: 45 / 67 °F
Wind: No wind

Location: Piedmont Triad International Airport

Current Time: Apr 27, 2015 at 10:34:11 PM

Latest Report: Apr 27, 2015 at 9:54 PM


Visibility: 10 mi

Pressure: 29.92 "Hg

Humidity: 43%

Dew point: 30 °F

Location of GreensboroLocation

Historic Weather in Greensboro — Graph

°F

Greensboro temperature yesterday

Maximum temperature yesterday: 54 °F (at 6:04 PM)
Minimum temperature yesterday: 43 °F (at 3:54 AM)
Average temperature yesterday: 47 °F

Past Weeks' High & Low Weather Summary

 TemperatureHumidityPressure
High78 °F (Apr 18, 1:54 PM)100% (Apr 14, 7:54 AM)30.37 "Hg (Apr 14, 7:54 AM)
Low42 °F (Apr 27, 4:54 AM)15% (Apr 23, 4:54 PM)29.58 "Hg (Apr 20, 6:54 PM)
Average59 °F69%29.95 "Hg
* Reported Apr 12 8:54 PM — Apr 27 8:54 PM, Greensboro, Weather by CustomWeather, © 2015

Note: Actual official high and low records may vary slightly from our data, if they occured in-between our weather recording intervals... More about our weather records

Advertising

Greensboro weather history for previous 24 hours

 ConditionsComfort  
Time TempWeatherWind HumidityBarometerVisibility
8:54 PM
Mon, Apr 27
55 °FScattered clouds.No wind39%29.90 "Hg10 mi
7:54 PM58 °FScattered clouds.6 mph33%29.87 "Hg10 mi
6:54 PM62 °FBroken clouds.8 mph31%29.85 "Hg10 mi
5:54 PM65 °FPartly sunny.13 mph27%29.82 "Hg10 mi
4:54 PM67 °FScattered clouds.10 mph27%29.82 "Hg10 mi
3:54 PM66 °FScattered clouds.12 mph27%29.80 "Hg10 mi
2:54 PM66 °FScattered clouds.16 mph27%29.79 "Hg10 mi
1:54 PM65 °FPassing clouds.15 mph29%29.79 "Hg10 mi
12:54 PM64 °FScattered clouds.14 mph33%29.82 "Hg10 mi
11:54 AM63 °FScattered clouds.14 mph35%29.84 "Hg10 mi
10:54 AM60 °FPassing clouds.14 mph38%29.85 "Hg10 mi
9:54 AM57 °FPassing clouds.6 mph49%29.84 "Hg10 mi
8:54 AM53 °FScattered clouds.7 mph64%29.82 "Hg10 mi
7:54 AM47 °FScattered clouds.3 mph90%29.81 "Hg10 mi
6:54 AM43 °FPassing clouds.3 mph100%29.79 "Hg7 mi
5:54 AM43 °FClear.No wind97%29.76 "Hg9 mi
4:54 AM42 °FClear.3 mph92%29.75 "Hg10 mi
3:54 AM43 °FClear.3 mph97%29.76 "Hg10 mi
2:54 AM43 °FPassing clouds.5 mph97%29.77 "Hg10 mi
1:54 AM45 °FPassing clouds.6 mph93%29.78 "Hg10 mi
12:54 AM47 °FMostly cloudy.No wind90%29.77 "Hg10 mi
11:54 PM
Sun, Apr 26
47 °FPartly cloudy.3 mph90%29.78 "Hg10 mi
10:54 PM48 °FPassing clouds.No wind86%29.77 "Hg10 mi
Weather by CustomWeather, © 2015

See weather overviewHow to use our weather pages